Location: Unspecified
(0.0000°N, 0.0000°E)
Time: 04:48:09
(UTC+00:00)

CANX-2 - Pass Details

Date: 25 May 2026
Orbit: 542 x 558 km, 97.9° (Epoch: 11 June)

Event Time Altitude Azimuth Distance (km) Brightness Sun altitude
Rises 04:30:39 0° 354° (N) 2,686 ? -20.1°
Reaches altitude 10° 04:32:57 10° 343° (NNW) 1,799 ? -19.6°
Enters shadow 04:35:26 26° 307° (NW) 1,082 ? -19.0°
